VLK466 UHHH-UHSS

Flight info

Callsign VLK466
Flight time N/A
Altitude 34000
Route N0480F340 NEBES B150 MOGIS A969 KENOM
Aircraft T154/M-VGDW/C

Departure

Time 2026-04-30 17:51
Airport Khabarovsk Novy Airport (UHHH)

Arrival

Time N/A
Airport Yuzhno-Sakhalinsk International Airport (UHSS)
Time Latitude Longitude Altitude Speed Heading
2026-04-30 17:39 48.52483 135.17278 254 ft 2 kts 311°
2026-04-30 17:41 48.52438 135.17282 254 ft 0 kts 46°
2026-04-30 17:44 48.52451 135.17300 254 ft 5 kts 42°
2026-04-30 17:44 48.52431 135.17557 254 ft 13 kts 128°
2026-04-30 17:46 48.52354 135.17961 254 ft 14 kts 42°
2026-04-30 17:47 48.52752 135.18497 254 ft 24 kts 41°
2026-04-30 17:48 48.53276 135.19209 254 ft 27 kts 41°
2026-04-30 17:48 48.53646 135.19705 254 ft 24 kts 41°
2026-04-30 17:49 48.53922 135.20093 254 ft 4 kts 200°
2026-04-30 17:50 48.53390 135.19369 255 ft 122 kts 222°
2026-04-30 17:51 48.50905 135.16194 2012 ft 165 kts 225°
2026-04-30 17:52 48.48179 135.12624 4033 ft 179 kts 228°
2026-04-30 17:53 48.42824 135.04929 7706 ft 230 kts 225°
2026-04-30 17:54 48.38060 134.98514 10809 ft 246 kts 225°
2026-04-30 17:55 48.32509 134.91028 12980 ft 290 kts 223°
2026-04-30 17:56 48.25425 134.83987 15143 ft 332 kts 191°
2026-04-30 17:57 48.18950 134.88602 16782 ft 393 kts 130°
2026-04-30 17:58 48.14697 134.99394 18351 ft 411 kts 125°
2026-04-30 17:59 48.11620 135.15875 20485 ft 438 kts 88°
2026-04-30 18:00 48.11721 135.34270 22521 ft 448 kts 92°
2026-04-30 18:00 48.11487 135.48361 23697 ft 462 kts 93°
2026-04-30 18:01 48.11311 135.57889 24598 ft 464 kts 92°
2026-04-30 18:02 48.11024 135.72478 25714 ft 474 kts 94°
2026-04-30 18:02 48.10715 135.87321 26902 ft 478 kts 94°
2026-04-30 18:03 48.12753 136.01868 27898 ft 484 kts 66°
2026-04-30 18:04 48.16497 136.16097 28807 ft 489 kts 70°
2026-04-30 18:05 48.21103 136.35535 29809 ft 491 kts 70°
2026-04-30 18:06 48.25771 136.55600 28686 ft 503 kts 71°
2026-04-30 18:07 48.30285 136.75395 29264 ft 504 kts 76°
2026-04-30 18:08 48.29438 136.90671 29796 ft 497 kts 110°
2026-04-30 18:09 48.25920 137.10820 30516 ft 501 kts 107°
2026-04-30 18:10 48.23225 137.31390 30722 ft 508 kts 90°
2026-04-30 18:11 48.24343 137.52539 30862 ft 512 kts 85°
2026-04-30 18:11 48.25243 137.68483 30949 ft 510 kts 91°
2026-04-30 18:12 48.22723 137.83551 30852 ft 501 kts 116°
2026-04-30 18:13 48.19933 137.93054 30879 ft 501 kts 118°
2026-04-30 18:13 48.16042 138.05670 31043 ft 496 kts 118°
2026-04-30 18:14 48.12662 138.16516 31682 ft 491 kts 118°
2026-04-30 18:15 48.08330 138.30330 32694 ft 486 kts 118°
2026-04-30 18:15 48.03969 138.44159 33397 ft 488 kts 118°
2026-04-30 18:16 48.01075 138.53296 33826 ft 488 kts 118°